TimeMST,TemperatureF,Dew PointF,Humidity,Sea Level PressureIn,VisibilityMPH,Wind Direction,Wind SpeedMPH,Gust SpeedMPH,PrecipitationIn,Events,Conditions,WindDirDegrees,DateUTC
12:53 AM,39.0,28.9,67,29.98,10.0,Calm,Calm,-,N/A,,Clear,0,2012-11-17 07:53:00
1:53 AM,46.9,27.0,46,29.96,10.0,NW,5.8,-,N/A,,Partly Cloudy,320,2012-11-17 08:53:00
2:53 AM,41.0,28.0,60,29.98,10.0,SSE,5.8,-,N/A,,Mostly Cloudy,150,2012-11-17 09:53:00
3:53 AM,37.9,27.0,65,30.01,10.0,Calm,Calm,-,N/A,,Clear,0,2012-11-17 10:53:00
4:53 AM,41.0,28.0,60,30.02,10.0,SW,3.5,-,N/A,,Clear,230,2012-11-17 11:53:00
5:53 AM,39.0,28.9,67,30.06,10.0,WSW,8.1,-,N/A,,Clear,250,2012-11-17 12:53:00
6:53 AM,42.1,30.0,62,30.06,10.0,NW,9.2,-,N/A,,Clear,310,2012-11-17 13:53:00
7:53 AM,43.0,30.0,60,30.09,10.0,West,5.8,-,N/A,,Clear,260,2012-11-17 14:53:00
8:53 AM,50.0,33.1,52,30.07,10.0,WSW,5.8,-,N/A,,Clear,240,2012-11-17 15:53:00
9:53 AM,54.0,33.1,45,30.07,10.0,WSW,11.5,-,N/A,,Clear,250,2012-11-17 16:53:00
10:53 AM,59.0,28.9,32,30.04,10.0,West,12.7,-,N/A,,Clear,260,2012-11-17 17:53:00
11:53 AM,60.1,30.0,32,30.01,10.0,West,13.8,-,N/A,,Clear,260,2012-11-17 18:53:00
12:53 PM,61.0,32.0,34,29.99,10.0,WSW,16.1,20.7,N/A,,Scattered Clouds,250,2012-11-17 19:53:00
1:53 PM,62.1,32.0,32,29.96,10.0,WNW,11.5,18.4,N/A,,Scattered Clouds,300,2012-11-17 20:53:00
2:53 PM,57.9,33.1,39,29.99,10.0,WNW,13.8,-,N/A,,Scattered Clouds,290,2012-11-17 21:53:00
3:53 PM,57.0,35.1,44,30.01,10.0,West,10.4,-,N/A,,Scattered Clouds,280,2012-11-17 22:53:00
4:53 PM,53.1,35.1,50,30.01,10.0,WNW,5.8,-,N/A,,Partly Cloudy,290,2012-11-17 23:53:00
5:53 PM,48.9,34.0,56,30.03,10.0,NW,3.5,-,N/A,,Mostly Cloudy,310,2012-11-18 00:53:00
6:53 PM,48.0,35.1,61,30.02,10.0,Calm,Calm,-,N/A,,Partly Cloudy,0,2012-11-18 01:53:00
7:53 PM,44.1,34.0,68,30.03,10.0,WSW,4.6,-,N/A,,Clear,240,2012-11-18 02:53:00
8:53 PM,42.1,33.1,70,30.02,10.0,SE,6.9,-,N/A,,Overcast,140,2012-11-18 03:53:00
9:53 PM,44.1,34.0,68,29.98,10.0,ESE,5.8,-,N/A,,Overcast,110,2012-11-18 04:53:00
10:53 PM,42.1,34.0,73,29.97,10.0,ESE,6.9,-,N/A,,Overcast,110,2012-11-18 05:53:00
11:53 PM,41.0,34.0,76,29.96,10.0,East,8.1,-,N/A,,Overcast,90,2012-11-18 06:53:00